Tracking 18980 objects as of 22-Feb-2018
HD Live streaming from Space Station
objects crossing your sky now

COSMOS 875

Track COSMOS 875 now!
10-day predictions
COSMOS 875 is classified as:


NORAD ID: 9592
Int'l Code: 1976-118E
Perigee: 1,443.5 km
Apogee: 1,470.8 km
Inclination: 74.0 °
Period: 114.9 minutes
Semi major axis: 7828 km
RCS: 0.6944 m2 (medium)
Launch date: December 7, 1976
Source: Commonwealth of Independent States (former USSR) (CIS)
Launch site: PLESETSK MISSILE AND SPACE COMPLEX (PKMTR)
aabbcc
Your satellite tracking list
Your tracking list is empty




NASA's NSSDC Master Catalog

Two Line Element Set (TLE):
1  9592U 76118E   18051.81966660 -.00000024 +00000-0 -49164-4 0  9991
2  9592 074.0290 276.0440 0017402 008.7210 068.7773 12.53471102885458
Source of the keplerian elements: AFSPC